Location: Betzi
(47.2343°N, 9.5260°E)
Time: 17:44:36
(UTC+00:00)

SL-16 R/B - Pass Details

Date: 27 May 2022
Orbit: 985 x 1006 km, 99.6° (Epoch: 07 July)

Event Time Altitude Azimuth Distance (km) Brightness Sun altitude
Exits shadow 01:45:52 15° 189° (S) 2,375 4.0 -13.9°
Maximum altitude 01:50:47 50° 260° (W) 1,255 2.8 -13.5°
Drops below altitude 10° 01:56:51 10° 335° (NNW) 2,784 5.3 -12.8°
Sets 01:59:27 0° 341° (NNW) 3,741 6.0 -12.6°
